Year,Month,Day,Hour,Minute,Value (Times are PST for temperature in C)
2009,05,14,07,28,3.90
2009,05,14,07,29,3.90
2009,05,14,07,30,3.90
2009,05,14,07,31,3.90
2009,05,14,07,32,4.00
2009,05,14,07,33,4.00
2009,05,14,07,34,4.10
2009,05,14,07,35,4.10
2009,05,14,07,36,4.10
2009,05,14,07,37,4.20
2009,05,14,07,38,4.20
2009,05,14,07,39,4.30
2009,05,14,07,40,4.40
2009,05,14,07,41,4.40
2009,05,14,07,42,4.40
2009,05,14,07,43,4.50
2009,05,14,07,44,4.50
2009,05,14,07,45,4.60
2009,05,14,07,46,4.60
2009,05,14,07,47,4.60
2009,05,14,07,48,4.70
2009,05,14,07,49,4.70
2009,05,14,07,50,4.70
2009,05,14,07,51,4.70
2009,05,14,07,52,4.70
2009,05,14,07,53,4.70
2009,05,14,07,54,4.70
2009,05,14,07,55,4.70
2009,05,14,07,56,4.70
2009,05,14,07,57,4.80
2009,05,14,07,58,4.80
2009,05,14,07,59,4.80
2009,05,14,08,00,4.90
2009,05,14,08,01,5.00
2009,05,14,08,02,5.00
2009,05,14,08,03,5.10
2009,05,14,08,04,5.20
2009,05,14,08,05,5.20
2009,05,14,08,06,5.20
2009,05,14,08,07,5.30
2009,05,14,08,08,5.30
2009,05,14,08,09,5.30
2009,05,14,08,10,5.30
2009,05,14,08,11,5.40
2009,05,14,08,12,5.40
2009,05,14,08,13,5.40
2009,05,14,08,14,5.50
2009,05,14,08,15,5.50
2009,05,14,08,16,5.60
2009,05,14,08,17,5.60
2009,05,14,08,18,5.70
2009,05,14,08,19,5.80
2009,05,14,08,20,5.80
2009,05,14,08,21,5.90
2009,05,14,08,22,5.90
2009,05,14,08,23,6.00
2009,05,14,08,24,6.00
2009,05,14,08,25,6.10
2009,05,14,08,26,6.10
2009,05,14,08,27,6.10
2009,05,14,08,28,6.10
2009,05,14,08,29,6.10
2009,05,14,08,30,6.20
2009,05,14,08,31,6.20
2009,05,14,08,32,6.20
2009,05,14,08,33,6.20
2009,05,14,08,34,6.20
2009,05,14,08,35,6.20
2009,05,14,08,36,6.10
2009,05,14,08,37,6.10
2009,05,14,08,38,6.10
2009,05,14,08,39,6.20
2009,05,14,08,40,6.20
2009,05,14,08,41,6.20
2009,05,14,08,42,6.20
2009,05,14,08,43,6.20
2009,05,14,08,44,6.20
2009,05,14,08,45,6.30
2009,05,14,08,46,6.30
2009,05,14,08,47,6.40
2009,05,14,08,48,6.40
2009,05,14,08,49,6.40
2009,05,14,08,50,6.50
2009,05,14,08,51,6.60
2009,05,14,08,52,6.70
2009,05,14,08,53,6.80
2009,05,14,08,54,6.80
2009,05,14,08,55,6.90
2009,05,14,08,56,7.00
2009,05,14,08,57,7.00
2009,05,14,08,58,7.10
2009,05,14,08,59,7.20
2009,05,14,09,00,7.20
2009,05,14,09,01,7.30
2009,05,14,09,02,7.40
2009,05,14,09,03,7.40
2009,05,14,09,04,7.50
2009,05,14,09,05,7.60
2009,05,14,09,06,7.70
2009,05,14,09,07,7.70
2009,05,14,09,08,7.70
2009,05,14,09,09,7.80
2009,05,14,09,10,7.80
2009,05,14,09,11,7.80
2009,05,14,09,12,7.80
2009,05,14,09,13,7.70
2009,05,14,09,14,7.70
2009,05,14,09,15,7.70
2009,05,14,09,16,7.80
2009,05,14,09,17,7.80
2009,05,14,09,18,7.80
2009,05,14,09,19,7.90
2009,05,14,09,20,7.90
2009,05,14,09,21,7.90
2009,05,14,09,22,7.90
2009,05,14,09,23,7.90
2009,05,14,09,24,7.90
2009,05,14,09,25,7.90
2009,05,14,09,26,7.90
2009,05,14,09,27,7.90
2009,05,14,09,28,7.90
2009,05,14,09,29,8.00
2009,05,14,09,30,8.00
2009,05,14,09,31,8.10
2009,05,14,09,32,8.20
2009,05,14,09,33,8.30
2009,05,14,09,34,8.30
2009,05,14,09,35,8.30
2009,05,14,09,36,8.40
2009,05,14,09,37,8.50
2009,05,14,09,38,8.50
2009,05,14,09,39,8.60
2009,05,14,09,40,8.60
2009,05,14,09,41,8.60
2009,05,14,09,42,8.70
2009,05,14,09,43,8.80
2009,05,14,09,44,8.80
2009,05,14,09,45,8.90
2009,05,14,09,46,8.90
2009,05,14,09,47,9.00
2009,05,14,09,48,9.00
2009,05,14,09,49,9.10
2009,05,14,09,50,9.10
2009,05,14,09,51,9.10
2009,05,14,09,52,9.20
2009,05,14,09,53,9.20
2009,05,14,09,54,9.20
2009,05,14,09,55,9.30
2009,05,14,09,56,9.30
2009,05,14,09,57,9.20
2009,05,14,09,58,9.20
2009,05,14,09,59,9.20
2009,05,14,10,00,9.20
2009,05,14,10,01,9.20
2009,05,14,10,02,9.20
2009,05,14,10,03,9.20
2009,05,14,10,04,9.20
2009,05,14,10,05,9.20
2009,05,14,10,06,9.30
2009,05,14,10,07,9.30
2009,05,14,10,08,9.30
2009,05,14,10,09,9.30
2009,05,14,10,10,9.30
2009,05,14,10,11,9.40
2009,05,14,10,12,9.50
2009,05,14,10,13,9.50
2009,05,14,10,14,9.50
2009,05,14,10,15,9.40
2009,05,14,10,16,9.40
2009,05,14,10,17,9.40
2009,05,14,10,18,9.40
2009,05,14,10,19,9.40
2009,05,14,10,20,9.50
2009,05,14,10,21,9.50
2009,05,14,10,22,9.60
2009,05,14,10,23,9.60
2009,05,14,10,24,9.60
2009,05,14,10,25,9.70
2009,05,14,10,26,9.70
2009,05,14,10,27,9.80
2009,05,14,10,28,9.90
2009,05,14,10,29,10.00
2009,05,14,10,30,10.00
2009,05,14,10,31,10.10
2009,05,14,10,32,10.30
2009,05,14,10,33,10.30
2009,05,14,10,34,10.40
2009,05,14,10,35,10.40
2009,05,14,10,36,10.40
2009,05,14,10,37,10.30
2009,05,14,10,38,10.30
2009,05,14,10,39,10.40
2009,05,14,10,40,10.40
2009,05,14,10,41,10.40
2009,05,14,10,42,10.40
2009,05,14,10,43,10.30
2009,05,14,10,44,10.30
2009,05,14,10,45,10.20
2009,05,14,10,46,10.20
2009,05,14,10,47,10.30
2009,05,14,10,48,10.40
2009,05,14,10,49,10.50
2009,05,14,10,50,10.60
2009,05,14,10,51,10.60
2009,05,14,10,52,10.70
2009,05,14,10,53,10.70
2009,05,14,10,54,10.70
2009,05,14,10,55,10.80
2009,05,14,10,56,10.90
2009,05,14,10,57,11.00
2009,05,14,10,58,11.00
2009,05,14,10,59,11.10
2009,05,14,11,00,11.10
2009,05,14,11,01,11.20
2009,05,14,11,02,11.20
2009,05,14,11,03,11.20
2009,05,14,11,04,11.20
2009,05,14,11,05,11.10
2009,05,14,11,06,11.10
2009,05,14,11,07,11.00
2009,05,14,11,08,11.10
2009,05,14,11,09,11.00
2009,05,14,11,10,11.00
2009,05,14,11,11,11.00
2009,05,14,11,12,11.00
2009,05,14,11,13,11.10
2009,05,14,11,14,11.20
2009,05,14,11,15,11.30
2009,05,14,11,16,11.40
2009,05,14,11,17,11.50
2009,05,14,11,18,11.60
2009,05,14,11,19,11.60
2009,05,14,11,20,11.50
2009,05,14,11,21,11.50
2009,05,14,11,22,11.60
2009,05,14,11,23,11.50
2009,05,14,11,24,11.50
2009,05,14,11,25,11.60
2009,05,14,11,26,11.60
2009,05,14,11,27,11.70
2009,05,14,11,28,11.70
2009,05,14,11,29,11.70
2009,05,14,11,30,11.70
2009,05,14,11,31,11.70
2009,05,14,11,32,11.70
2009,05,14,11,33,11.70
2009,05,14,11,34,11.70
2009,05,14,11,35,11.80
2009,05,14,11,36,11.90
2009,05,14,11,37,11.90
2009,05,14,11,38,11.90
2009,05,14,11,39,11.90
2009,05,14,11,40,12.00
2009,05,14,11,41,12.00
2009,05,14,11,42,12.10
2009,05,14,11,43,12.10
2009,05,14,11,44,12.10
2009,05,14,11,45,12.10
2009,05,14,11,46,12.10
2009,05,14,11,47,12.20
2009,05,14,11,48,12.20
2009,05,14,11,49,12.30
2009,05,14,11,50,12.40
2009,05,14,11,51,12.50
2009,05,14,11,52,12.50
2009,05,14,11,53,12.60
2009,05,14,11,54,12.70
2009,05,14,11,55,12.80
2009,05,14,11,56,12.90
2009,05,14,11,57,12.90
2009,05,14,11,58,12.80
2009,05,14,11,59,12.80
2009,05,14,12,00,12.80
2009,05,14,12,01,12.70
2009,05,14,12,02,12.60
2009,05,14,12,03,12.50
2009,05,14,12,04,12.50
2009,05,14,12,05,12.60
2009,05,14,12,06,12.70
2009,05,14,12,07,12.80
2009,05,14,12,08,12.90
2009,05,14,12,09,12.90
2009,05,14,12,10,13.00
2009,05,14,12,11,13.10
2009,05,14,12,12,13.20
2009,05,14,12,13,13.20
2009,05,14,12,14,13.30
2009,05,14,12,15,13.20
2009,05,14,12,16,13.20
2009,05,14,12,17,13.10
2009,05,14,12,18,13.10
2009,05,14,12,19,13.20
2009,05,14,12,20,13.20
2009,05,14,12,21,13.20
2009,05,14,12,22,13.20
2009,05,14,12,23,13.20
2009,05,14,12,24,13.20
2009,05,14,12,25,13.30
2009,05,14,12,26,13.30
2009,05,14,12,27,13.30
2009,05,14,12,28,13.20
2009,05,14,12,29,13.10
2009,05,14,12,30,13.10
2009,05,14,12,31,13.10
2009,05,14,12,32,13.20
2009,05,14,12,33,13.20
2009,05,14,12,34,13.20
2009,05,14,12,35,13.20
2009,05,14,12,36,13.20
2009,05,14,12,37,13.20
2009,05,14,12,38,13.20
2009,05,14,12,39,13.30
2009,05,14,12,40,13.40
2009,05,14,12,41,13.50
2009,05,14,12,42,13.70
2009,05,14,12,43,13.80
2009,05,14,12,44,13.90
2009,05,14,12,45,14.10
2009,05,14,12,46,14.20
2009,05,14,12,47,14.20
2009,05,14,12,48,14.20
2009,05,14,12,49,14.20
2009,05,14,12,50,14.10
2009,05,14,12,51,14.10
2009,05,14,12,52,13.90
2009,05,14,12,53,13.80
2009,05,14,12,54,13.80
2009,05,14,12,55,13.80
2009,05,14,12,56,13.80
2009,05,14,12,57,13.90
2009,05,14,12,58,14.00
2009,05,14,12,59,14.10
2009,05,14,13,00,14.10
2009,05,14,13,01,14.10
2009,05,14,13,02,14.20
2009,05,14,13,03,14.30
2009,05,14,13,04,14.40
2009,05,14,13,05,14.50
2009,05,14,13,06,14.50
2009,05,14,13,07,14.60
2009,05,14,13,08,14.70
2009,05,14,13,09,14.70
2009,05,14,13,10,14.60
2009,05,14,13,11,14.60
2009,05,14,13,12,14.60
2009,05,14,13,13,14.70
2009,05,14,13,14,14.70
2009,05,14,13,15,14.80
2009,05,14,13,16,14.80
2009,05,14,13,17,14.90
2009,05,14,13,18,14.80
2009,05,14,13,19,14.90
2009,05,14,13,20,15.00
2009,05,14,13,21,15.00
2009,05,14,13,22,15.00
2009,05,14,13,23,15.10
2009,05,14,13,24,15.20
2009,05,14,13,25,15.20
2009,05,14,13,26,15.20
2009,05,14,13,27,15.30
2009,05,14,13,28,15.30
2009,05,14,13,29,15.20
2009,05,14,13,30,15.10
2009,05,14,13,31,15.10
2009,05,14,13,32,15.10
2009,05,14,13,33,15.10
2009,05,14,13,34,15.10
2009,05,14,13,35,15.20
2009,05,14,13,36,15.20
2009,05,14,13,37,15.10
2009,05,14,13,38,15.00
2009,05,14,13,39,15.00
2009,05,14,13,40,15.00
2009,05,14,13,41,15.00
2009,05,14,13,42,15.00
2009,05,14,13,43,15.00
2009,05,14,13,44,14.90
2009,05,14,13,45,14.90
2009,05,14,13,46,14.90
2009,05,14,13,47,14.90
2009,05,14,13,48,15.00
2009,05,14,13,49,15.00
2009,05,14,13,50,15.00
2009,05,14,13,51,15.00
2009,05,14,13,52,15.10
2009,05,14,13,53,15.10
2009,05,14,13,54,15.20
2009,05,14,13,55,15.20
2009,05,14,13,56,15.30
2009,05,14,13,57,15.40
2009,05,14,13,58,15.60
2009,05,14,13,59,15.70
2009,05,14,14,00,15.80
2009,05,14,14,01,15.90
2009,05,14,14,02,16.00
2009,05,14,14,03,16.10
2009,05,14,14,04,16.20
2009,05,14,14,05,16.30
2009,05,14,14,06,16.20
2009,05,14,14,07,16.10
2009,05,14,14,08,15.80
2009,05,14,14,09,15.70
2009,05,14,14,10,15.50
2009,05,14,14,11,15.40
2009,05,14,14,12,15.40
2009,05,14,14,13,15.40
2009,05,14,14,14,15.50
2009,05,14,14,15,15.50
2009,05,14,14,16,15.60
2009,05,14,14,17,15.70
2009,05,14,14,18,15.80
2009,05,14,14,19,15.90
2009,05,14,14,20,16.00
2009,05,14,14,21,16.10
2009,05,14,14,22,16.10
2009,05,14,14,23,16.10
2009,05,14,14,24,16.10
2009,05,14,14,25,16.10
2009,05,14,14,26,16.10
2009,05,14,14,27,16.10
2009,05,14,14,28,16.00
2009,05,14,14,29,16.00
2009,05,14,14,30,16.10
2009,05,14,14,31,16.20
2009,05,14,14,32,16.20
2009,05,14,14,33,16.30
2009,05,14,14,34,16.20
2009,05,14,14,35,16.10
2009,05,14,14,36,16.00
2009,05,14,14,37,15.90
2009,05,14,14,38,15.90
2009,05,14,14,39,15.80
2009,05,14,14,40,15.80
2009,05,14,14,41,15.80
2009,05,14,14,42,15.70
2009,05,14,14,43,15.70
2009,05,14,14,44,15.70
2009,05,14,14,45,15.80
2009,05,14,14,46,15.90
2009,05,14,14,47,16.00
2009,05,14,14,48,16.10
2009,05,14,14,49,16.30
2009,05,14,14,50,16.40
2009,05,14,14,51,16.50
2009,05,14,14,52,16.60
2009,05,14,14,53,16.70
2009,05,14,14,54,16.70
2009,05,14,14,55,16.80
2009,05,14,14,56,16.80
2009,05,14,14,57,16.80
2009,05,14,14,58,16.70
2009,05,14,14,59,16.70
2009,05,14,15,00,16.70
2009,05,14,15,01,16.80
2009,05,14,15,02,16.70
2009,05,14,15,03,16.70
2009,05,14,15,04,16.50
2009,05,14,15,05,16.40
2009,05,14,15,06,16.40
2009,05,14,15,07,16.40
2009,05,14,15,08,16.50
2009,05,14,15,09,16.60
2009,05,14,15,10,16.70
2009,05,14,15,11,16.80
2009,05,14,15,12,16.80
2009,05,14,15,13,16.80
2009,05,14,15,14,16.80
2009,05,14,15,15,16.80
2009,05,14,15,16,16.80
2009,05,14,15,17,16.90
2009,05,14,15,18,17.00
2009,05,14,15,19,17.10
2009,05,14,15,20,17.00
2009,05,14,15,21,16.90
2009,05,14,15,22,16.80
2009,05,14,15,23,16.70
2009,05,14,15,24,16.60
2009,05,14,15,25,16.50
2009,05,14,15,26,16.40
2009,05,14,15,27,16.30
2009,05,14,15,28,16.20
2009,05,14,15,29,16.20
2009,05,14,15,30,16.20
2009,05,14,15,31,16.30
2009,05,14,15,32,16.30
2009,05,14,15,33,16.40
2009,05,14,15,34,16.50
2009,05,14,15,35,16.60
2009,05,14,15,36,16.70
2009,05,14,15,37,16.80
2009,05,14,15,38,16.90
2009,05,14,15,39,17.00
2009,05,14,15,40,17.00
2009,05,14,15,41,17.10
2009,05,14,15,42,17.10
2009,05,14,15,43,17.20
2009,05,14,15,44,17.10
2009,05,14,15,45,17.00
2009,05,14,15,46,16.80
2009,05,14,15,47,16.60
2009,05,14,15,48,16.50
2009,05,14,15,49,16.40
2009,05,14,15,50,16.50
2009,05,14,15,51,16.50
2009,05,14,15,52,16.50
2009,05,14,15,53,16.50
2009,05,14,15,54,16.60
2009,05,14,15,55,16.70
2009,05,14,15,56,16.70
2009,05,14,15,57,16.70
2009,05,14,15,58,16.70
2009,05,14,15,59,16.70
2009,05,14,16,00,16.70
2009,05,14,16,01,16.60
2009,05,14,16,02,16.50
2009,05,14,16,03,16.40
2009,05,14,16,04,16.30
2009,05,14,16,05,16.20
2009,05,14,16,06,16.10
2009,05,14,16,07,16.00
2009,05,14,16,08,15.90
2009,05,14,16,09,15.90
2009,05,14,16,10,15.80
2009,05,14,16,11,15.70
2009,05,14,16,12,15.80
2009,05,14,16,13,15.80
2009,05,14,16,14,15.90
2009,05,14,16,15,15.90
2009,05,14,16,16,16.00
2009,05,14,16,17,16.00
2009,05,14,16,18,16.10
2009,05,14,16,19,16.10
2009,05,14,16,20,16.20
2009,05,14,16,21,16.20
2009,05,14,16,22,16.20
2009,05,14,16,23,16.10
2009,05,14,16,24,16.10
2009,05,14,16,25,16.00
2009,05,14,16,26,15.90
2009,05,14,16,27,15.90
2009,05,14,16,28,15.80
2009,05,14,16,29,15.60
2009,05,14,16,30,15.40
2009,05,14,16,31,15.30
2009,05,14,16,32,15.10
2009,05,14,16,33,15.00
2009,05,14,16,34,15.00
2009,05,14,16,35,15.00
2009,05,14,16,36,15.00
2009,05,14,16,37,15.00
2009,05,14,16,38,15.00
2009,05,14,16,39,15.10
2009,05,14,16,40,15.20
2009,05,14,16,41,15.30
2009,05,14,16,42,15.30
2009,05,14,16,43,15.30
2009,05,14,16,44,15.30
2009,05,14,16,45,15.30
2009,05,14,16,46,15.30
2009,05,14,16,47,15.30
2009,05,14,16,48,15.20
2009,05,14,16,49,15.10
2009,05,14,16,50,15.00
2009,05,14,16,51,15.00
2009,05,14,16,52,14.80
2009,05,14,16,53,14.70
2009,05,14,16,54,14.60
2009,05,14,16,55,14.60
2009,05,14,16,56,14.50
2009,05,14,16,57,14.40
2009,05,14,16,58,14.40
2009,05,14,16,59,14.40
2009,05,14,17,00,14.30
2009,05,14,17,01,14.30
2009,05,14,17,02,14.20
2009,05,14,17,03,14.20
2009,05,14,17,04,14.20
2009,05,14,17,05,14.20
2009,05,14,17,06,14.10
2009,05,14,17,07,14.20
2009,05,14,17,08,14.20
2009,05,14,17,09,14.20
2009,05,14,17,10,14.20
2009,05,14,17,11,14.20
2009,05,14,17,12,14.20
2009,05,14,17,13,14.20
2009,05,14,17,14,14.20
2009,05,14,17,15,14.10
2009,05,14,17,16,14.10
2009,05,14,17,17,14.10
2009,05,14,17,18,14.10
2009,05,14,17,19,14.10
2009,05,14,17,20,14.10
2009,05,14,17,21,14.10
2009,05,14,17,22,14.10
2009,05,14,17,23,14.10
2009,05,14,17,24,14.10
2009,05,14,17,25,14.10
2009,05,14,17,26,14.10
2009,05,14,17,27,14.10
2009,05,14,17,28,14.20
2009,05,14,17,29,14.20
2009,05,14,17,30,14.20
2009,05,14,17,31,14.20
2009,05,14,17,32,14.20
2009,05,14,17,33,14.20
2009,05,14,17,34,14.20
2009,05,14,17,35,14.20
2009,05,14,17,36,14.20
2009,05,14,17,37,14.10
2009,05,14,17,38,14.10
2009,05,14,17,39,14.10
2009,05,14,17,40,14.10
2009,05,14,17,41,14.10
2009,05,14,17,42,14.20
2009,05,14,17,43,14.20
2009,05,14,17,44,14.20
2009,05,14,17,45,14.20
2009,05,14,17,46,14.20
2009,05,14,17,47,14.20
2009,05,14,17,48,14.20
2009,05,14,17,49,14.20
2009,05,14,17,50,14.20
2009,05,14,17,51,14.20
2009,05,14,17,52,14.30
2009,05,14,17,53,14.30
2009,05,14,17,54,14.20
2009,05,14,17,55,14.20
2009,05,14,17,56,14.10
2009,05,14,17,57,14.10
2009,05,14,17,58,14.10
2009,05,14,17,59,14.00
2009,05,14,18,00,14.10
2009,05,14,18,01,14.10
2009,05,14,18,02,14.10
2009,05,14,18,03,14.10
2009,05,14,18,04,14.20
2009,05,14,18,05,14.20
2009,05,14,18,06,14.20
2009,05,14,18,07,14.20
2009,05,14,18,08,14.20
2009,05,14,18,09,14.20
2009,05,14,18,10,14.30
2009,05,14,18,11,14.30
2009,05,14,18,12,14.20
2009,05,14,18,13,14.20
2009,05,14,18,14,14.20
2009,05,14,18,15,14.20
2009,05,14,18,16,14.20
2009,05,14,18,17,14.20
2009,05,14,18,18,14.20
2009,05,14,18,19,14.20
2009,05,14,18,20,14.20
2009,05,14,18,21,14.20
2009,05,14,18,22,14.20
2009,05,14,18,23,14.20
2009,05,14,18,24,14.20
2009,05,14,18,25,14.20
2009,05,14,18,41,14.00
2009,05,14,18,42,14.00
2009,05,14,18,43,14.00
2009,05,14,18,44,14.00
2009,05,14,18,45,14.00
2009,05,14,18,46,14.00
2009,05,14,18,47,14.00
2009,05,14,18,48,14.00
2009,05,14,18,49,14.00
2009,05,14,18,50,14.00
2009,05,14,18,51,14.00
